Wind_Speed
12 13 15 16 17 18 18 18 20 19 20 21 23 24 23 22 21 19 19 19 18 18 18 17 16 16 15 14 13 12 12 12 12 13 13 13 14 15 15 16 16 15 15 15
13 14 16 17 17 18 19 20 21 21 21 21 23 23 24 23 21 20 20 20 20 19 19 19 18 17 16 16 15 14 13 13 13 13 13 14 14 15 15 16 16 16 16 15
15 16 18 17 18 20 21 21 23 23 23 23 22 22 23 23 22 22 21 22 21 21 21 20 20 19 18 17 17 16 15 14 14 14 14 14 14 15 15 15 16 16 16 16
18 18 19 17 20 22 23 23 24 25 24 23 22 22 23 24 23 23 22 22 23 22 22 22 21 20 20 19 18 18 17 16 16 15 15 15 15 15 15 15 16 16 16 16
21 22 21 21 22 23 23 25 26 26 26 24 23 23 25 25 24 23 23 23 23 24 24 23 23 22 21 21 20 20 19 18 17 17 16 16 16 15 16 16 16 16 16 16
23 24 24 24 25 25 26 28 28 28 27 25 24 24 25 26 25 24 25 24 24 25 25 25 25 25 24 23 22 21 21 20 19 19 18 17 17 17 16 17 17 17 16 16
26 26 26 28 28 28 28 30 31 31 30 29 27 27 27 27 27 26 26 26 26 26 26 26 26 26 26 25 24 23 23 22 22 21 20 19 19 18 18 18 18 17 17 17
30 30 31 32 32 32 33 33 34 34 33 32 31 31 30 29 29 29 29 29 29 28 28 28 28 28 28 27 26 26 25 24 24 23 22 21 21 20 20 19 19 18 18 18
33 33 35 36 37 37 37 37 37 38 38 36 35 34 34 33 32 32 31 31 32 31 30 30 30 30 30 29 29 28 27 27 26 25 24 23 23 22 21 21 20 20 20 19
37 36 39 40 41 41 41 41 42 42 42 41 40 38 38 37 36 35 34 34 34 34 33 33 32 32 32 32 31 30 29 29 28 27 26 26 25 24 23 23 22 22 21 21
41 41 42 44 45 45 45 45 45 45 45 45 44 42 41 40 39 39 38 37 37 36 36 35 35 34 34 34 33 32 32 31 30 29 28 27 27 26 25 24 24 23 23 22
45 45 46 47 48 48 48 48 48 48 47 46 46 45 44 43 42 42 41 40 40 39 39 38 37 36 36 35 35 34 33 33 32 31 30 29 28 28 27 26 25 25 24 24
48 48 49 49 50 50 51 50 50 50 49 48 47 47 46 45 44 44 43 43 42 42 41 40 40 39 37 37 36 36 35 34 33 33 32 31 30 29 28 28 27 27 26 25
50 50 51 51 51 51 52 52 52 51 51 50 49 49 48 47 46 46 45 45 44 44 43 42 41 41 40 39 38 37 36 36 35 34 33 32 32 31 30 29 29 28 28 27
52 52 52 52 52 52 53 53 53 52 51 51 50 50 49 48 47 47 47 47 47 46 45 44 43 42 42 41 40 39 38 37 36 35 34 34 33 32 32 31 30 30 29 29
53 53 53 53 53 53 53 53 52 52 51 51 50 50 50 50 49 48 48 48 48 47 46 46 45 44 44 43 42 41 40 39 38 36 35 35 34 34 33 33 32 31 31 31
53 53 53 53 53 52 52 52 52 51 51 50 50 50 50 50 50 50 49 49 49 48 48 47 47 46 46 45 45 44 42 41 40 38 37 36 36 35 34 34 33 33 32 32
52 52 52 52 52 51 51 51 51 51 50 50 50 50 50 50 50 50 50 50 50 49 48 48 48 48 48 47 46 46 45 44 42 41 39 38 37 37 36 35 35 35 34 34
52 52 52 51 51 51 51 50 50 49 49 48 48 49 49 49 50 50 49 50 50 50 49 49 49 49 48 48 48 47 46 46 45 43 42 40 39 39 38 37 36 36 36 35
52 52 52 51 51 51 51 50 49 48 47 47 47 47 47 48 48 49 49 49 49 49 49 49 49 49 49 48 48 48 47 47 47 46 44 43 42 41 40 39 38 38 37 37
51 51 51 50 50 49 49 49 48 47 47 47 47 46 46 46 47 47 47 47 47 47 48 48 49 49 49 49 49 48 48 48 48 48 46 45 44 43 42 41 40 40 39 39
52 51 50 49 48 47 47 47 47 47 47 46 46 46 46 45 45 45 44 44 45 45 46 46 47 48 49 50 50 49 49 50 49 49 48 47 46 45 44 43 43 42 42 42
50 49 48 47 47 46 46 46 46 46 46 46 45 45 44 44 43 43 42 42 43 43 44 44 45 46 47 48 49 49 48 49 49 49 49 48 47 46 45 45 44 44 43 43
47 47 46 46 45 45 45 45 45 45 45 45 44 43 42 42 41 41 41 40 40 41 42 42 43 44 45 46 47 48 48 48 48 48 48 47 47 47 46 45 44 44 44 44
45 45 45 44 44 44 44 44 43 42 42 41 41 40 39 39 39 39 39 38 39 39 40 41 41 42 44 45 46 46 47 48 48 47 48 47 47 46 46 46 45 44 44 44
44 43 43 43 43 43 42 41 40 39 38 38 37 37 37 36 35 36 36 36 37 37 37 38 39 40 41 42 42 43 44 45 46 47 47 47 47 47 46 45 44 44 44 44
43 43 42 41 41 40 39 38 38 37 36 36 35 34 33 33 32 32 31 32 33 34 35 36 37 37 37 38 40 40 41 42 43 44 45 45 46 45 44 43 42 42 42 42
Wind_Direction
279 283 285 286 288 289 291 291 289 286 282 281 278 278 279 280 278 273 268 264 262 259 259 262 265 269 273 275 281 289 298 306 313 320 326 330 335 339 342 345 346 346 347 346
290 288 288 290 291 291 292 292 290 288 286 283 280 279 279 279 277 273 268 265 262 259 257 259 261 264 268 271 274 280 289 297 305 311 318 323 327 332 337 339 341 342 343 344
294 291 291 295 296 293 291 291 290 290 289 286 285 282 279 277 275 271 268 264 262 259 257 257 259 261 264 267 270 274 281 289 296 303 308 314 319 325 329 333 336 337 338 339
298 294 291 298 292 291 292 291 289 288 289 288 286 282 278 275 273 271 269 266 262 260 258 257 258 260 262 264 266 270 275 281 288 294 301 306 311 317 322 326 330 333 333 334
300 297 296 293 292 293 292 291 290 289 289 289 286 281 277 276 274 272 269 266 262 260 258 257 258 259 261 262 265 268 271 276 281 287 292 298 303 309 314 319 322 326 328 329
298 297 296 293 291 292 291 288 289 289 289 288 284 280 278 278 276 272 269 266 264 260 258 257 257 258 260 261 263 265 268 272 276 281 285 290 296 301 307 312 316 318 321 324
295 293 291 291 292 291 285 286 289 289 289 287 284 281 278 275 274 272 269 266 264 261 258 257 257 258 259 261 262 264 266 269 272 276 280 284 289 294 299 304 309 312 314 317
293 290 287 290 290 287 285 285 285 285 285 284 282 279 277 275 273 271 268 265 263 261 259 258 258 258 258 260 261 263 264 266 269 272 275 279 283 288 292 297 302 305 308 310
289 287 287 287 286 285 284 283 282 282 281 281 279 278 276 274 272 270 267 265 262 260 259 258 258 258 258 259 260 261 263 264 266 269 272 275 278 283 287 291 295 299 302 304
289 286 284 283 283 284 283 282 280 280 280 279 278 276 274 273 271 269 267 265 263 261 259 258 258 257 257 258 259 260 261 262 264 266 269 271 275 278 282 286 290 294 297 299
288 286 283 282 281 281 281 281 279 279 279 279 278 275 273 271 269 267 266 264 263 261 259 258 257 257 257 257 258 259 260 261 262 264 267 269 272 275 278 281 285 289 292 295
288 287 285 284 282 283 282 282 280 280 279 277 276 275 272 270 268 266 264 263 262 261 259 257 256 256 255 256 257 258 259 259 261 262 264 267 269 272 275 278 282 285 288 291
287 287 286 286 284 283 282 281 280 279 277 276 274 274 272 270 267 265 263 261 260 259 258 257 256 255 254 254 255 256 257 258 259 260 262 264 267 270 272 275 279 282 285 287
289 288 287 286 286 284 282 281 280 279 277 276 274 273 272 270 267 265 263 260 259 258 257 256 255 254 253 252 253 254 256 257 258 259 260 262 264 267 270 273 276 279 282 285
289 288 288 288 287 285 284 282 280 279 278 276 274 273 272 270 267 265 263 261 259 257 256 255 253 252 252 251 251 252 253 255 256 258 259 261 263 265 268 270 273 277 280 283
289 289 289 288 287 287 285 283 281 280 278 276 274 272 271 269 267 265 263 261 260 257 255 254 252 250 250 250 249 250 251 252 254 255 257 259 261 263 266 269 271 275 278 281
290 290 289 289 289 287 286 284 282 280 279 277 275 272 271 269 267 265 263 261 259 258 255 253 251 250 249 249 248 249 249 250 251 253 255 258 260 262 265 267 270 273 276 278
291 291 291 291 290 289 287 284 282 280 279 277 276 273 271 269 267 265 262 260 258 256 255 253 251 249 249 249 248 248 248 248 249 251 252 255 258 261 263 266 269 272 274 277
291 291 292 291 290 289 287 285 283 281 279 277 276 274 271 269 267 264 262 260 258 255 253 252 250 248 247 247 247 247 247 247 248 250 251 254 256 259 262 265 267 270 273 276
290 291 292 291 290 289 288 286 284 282 281 279 278 275 272 269 267 265 263 261 259 256 252 250 249 247 245 245 246 246 246 246 247 248 250 252 255 257 260 263 266 269 272 275
290 291 291 291 290 289 288 287 285 284 282 281 278 276 273 270 268 266 264 261 258 256 253 250 248 246 244 244 244 245 245 245 246 247 249 251 254 256 259 262 265 268 271 275
290 291 291 291 291 290 289 288 287 285 283 282 279 277 274 271 268 266 264 261 257 255 253 251 248 246 244 243 243 244 244 244 245 246 248 251 253 256 259 262 264 267 270 274
290 290 290 290 291 290 290 290 288 286 283 281 280 277 274 271 268 265 262 260 257 254 252 250 248 246 244 243 243 243 244 244 245 245 247 250 253 255 258 261 264 267 270 273
289 289 290 290 290 291 291 291 290 287 285 282 280 278 276 271 266 264 263 260 256 253 250 249 247 246 244 243 241 242 243 243 244 245 246 249 252 255 258 261 265 268 270 273
289 289 289 290 290 291 290 291 290 289 286 283 280 278 276 272 267 263 260 259 255 251 248 246 245 245 244 243 242 242 243 242 242 244 245 248 251 254 257 260 263 266 268 271
288 289 289 290 291 291 290 289 289 289 286 283 281 279 277 274 270 265 260 258 256 252 248 245 243 244 244 243 243 242 242 242 242 242 243 246 249 251 254 258 261 265 268 270
287 289 289 289 289 289 289 289 289 289 287 283 280 280 279 276 271 266 262 260 257 252 249 246 244 242 242 242 242 241 240 240 240 241 243 245 248 251 254 258 261 264 267 270
Height
5816 5816 5816 5815 5815 5814 5813 5812 5811 5811 5810 5809 5808 5806 5805 5804 5804 5804 5804 5805 5805 5806 5806 5807 5808 5808 5808 5808 5807 5807 5806 5805 5803 5802 5800 5798 5795 5793 5790 5787 5785 5782 5780 5777
5814 5813 5812 5812 5811 5810 5809 5808 5806 5805 5805 5804 5802 5801 5801 5800 5800 5800 5800 5800 5800 5801 5802 5802 5803 5804 5804 5804 5804 5804 5803 5802 5801 5799 5798 5796 5794 5791 5789 5786 5784 5781 5778 5776
5810 5809 5808 5808 5808 5806 5804 5803 5802 5800 5800 5798 5797 5797 5796 5795 5795 5795 5795 5795 5795 5796 5797 5798 5798 5799 5799 5799 5800 5799 5799 5798 5797 5796 5795 5793 5791 5789 5787 5785 5782 5780 5777 5775
5805 5805 5804 5807 5803 5801 5800 5798 5796 5795 5793 5793 5792 5791 5790 5789 5789 5789 5790 5790 5790 5791 5791 5792 5793 5794 5794 5794 5795 5795 5795 5794 5794 5793 5791 5790 5788 5787 5785 5782 5780 5778 5775 5773
5800 5799 5799 5799 5797 5795 5794 5792 5790 5788 5787 5787 5787 5786 5783 5783 5783 5784 5784 5784 5784 5785 5786 5786 5787 5788 5789 5789 5789 5790 5790 5789 5789 5788 5787 5786 5785 5783 5781 5779 5777 5775 5773 5771
5795 5793 5793 5793 5790 5789 5789 5785 5783 5781 5780 5780 5780 5780 5779 5778 5777 5778 5778 5778 5778 5779 5779 5780 5781 5782 5782 5783 5784 5784 5784 5784 5784 5783 5783 5782 5781 5779 5778 5776 5774 5772 5770 5768
5788 5787 5785 5784 5782 5782 5782 5778 5775 5774 5773 5773 5772 5772 5772 5771 5771 5771 5771 5771 5771 5772 5773 5773 5774 5775 5775 5776 5777 5777 5778 5778 5778 5778 5777 5777 5776 5775 5773 5772 5770 5768 5767 5765
5782 5780 5780 5776 5775 5774 5772 5769 5767 5766 5765 5765 5764 5763 5763 5763 5763 5763 5763 5764 5764 5764 5765 5766 5766 5767 5768 5769 5770 5770 5771 5771 5771 5771 5771 5771 5770 5769 5768 5767 5766 5764 5762 5761
5774 5774 5770 5767 5764 5763 5762 5761 5759 5757 5756 5756 5755 5755 5754 5754 5755 5754 5755 5755 5755 5756 5757 5757 5758 5759 5760 5761 5761 5762 5763 5763 5764 5764 5764 5764 5764 5763 5763 5762 5760 5759 5757 5756
5764 5763 5760 5757 5754 5752 5750 5749 5748 5746 5745 5745 5745 5745 5744 5744 5744 5744 5745 5745 5746 5746 5747 5748 5749 5750 5751 5752 5753 5754 5755 5755 5756 5756 5757 5757 5757 5757 5756 5755 5754 5753 5752 5750
5752 5751 5748 5746 5742 5740 5738 5736 5735 5733 5733 5732 5732 5732 5732 5732 5732 5733 5734 5734 5735 5736 5737 5738 5739 5740 5741 5742 5743 5744 5745 5746 5747 5748 5749 5749 5749 5749 5749 5748 5747 5747 5745 5744
5740 5738 5734 5732 5729 5727 5725 5723 5721 5720 5720 5719 5718 5718 5718 5718 5719 5720 5720 5721 5722 5723 5725 5726 5728 5729 5731 5732 5733 5734 5736 5737 5738 5739 5740 5741 5741 5741 5741 5741 5740 5739 5738 5737
5726 5723 5719 5717 5715 5712 5710 5708 5707 5705 5704 5704 5703 5703 5703 5703 5704 5705 5706 5707 5708 5710 5711 5713 5715 5717 5719 5720 5722 5723 5725 5726 5728 5729 5730 5731 5732 5732 5732 5733 5732 5731 5731 5730
5711 5708 5705 5702 5700 5697 5694 5693 5691 5690 5689 5688 5688 5687 5687 5688 5689 5690 5691 5692 5694 5695 5697 5699 5702 5704 5707 5708 5710 5712 5714 5715 5717 5719 5720 5721 5722 5723 5723 5724 5724 5723 5722 5722
5696 5692 5689 5686 5684 5681 5678 5676 5675 5674 5673 5672 5671 5671 5671 5672 5673 5674 5675 5676 5678 5680 5683 5685 5688 5691 5693 5695 5697 5700 5702 5704 5706 5708 5709 5710 5712 5713 5713 5714 5714 5714 5714 5713
5680 5676 5673 5670 5667 5665 5662 5660 5658 5657 5656 5655 5655 5655 5655 5655 5656 5657 5659 5660 5662 5664 5667 5670 5673 5676 5678 5681 5684 5687 5689 5691 5694 5696 5698 5699 5701 5702 5703 5704 5704 5705 5704 5704
5663 5660 5657 5654 5651 5648 5646 5643 5641 5640 5639 5638 5637 5637 5638 5638 5639 5640 5642 5643 5645 5648 5651 5654 5657 5660 5663 5666 5669 5673 5676 5678 5681 5684 5686 5688 5689 5691 5692 5693 5694 5695 5695 5694
5647 5644 5641 5638 5635 5632 5630 5627 5624 5623 5622 5621 5620 5620 5620 5620 5621 5622 5624 5626 5628 5631 5634 5637 5640 5644 5647 5651 5654 5658 5661 5665 5668 5671 5673 5676 5678 5679 5681 5682 5683 5684 5684 5684
5631 5628 5625 5622 5618 5616 5613 5611 5609 5607 5605 5604 5604 5603 5603 5603 5603 5604 5606 5608 5610 5614 5617 5620 5623 5627 5631 5635 5639 5643 5647 5651 5654 5657 5660 5663 5665 5667 5669 5670 5671 5672 5673 5673
5616 5613 5609 5606 5603 5600 5597 5595 5593 5591 5589 5588 5587 5586 5586 5586 5586 5587 5589 5591 5593 5596 5599 5602 5606 5610 5614 5619 5623 5627 5631 5636 5640 5643 5647 5650 5652 5654 5656 5658 5659 5660 5661 5661
5600 5597 5594 5591 5588 5585 5582 5579 5577 5575 5574 5572 5571 5570 5570 5570 5569 5570 5571 5574 5577 5579 5582 5585 5589 5593 5598 5602 5607 5611 5616 5620 5624 5629 5633 5636 5639 5641 5644 5646 5647 5648 5649 5649
5585 5582 5579 5576 5574 5571 5568 5565 5562 5560 5558 5556 5555 5554 5553 5553 5553 5554 5555 5557 5560 5562 5565 5569 5573 5577 5582 5586 5591 5595 5600 5605 5609 5614 5618 5622 5625 5628 5630 5633 5634 5636 5636 5637
5570 5567 5564 5562 5559 5556 5554 5550 5547 5545 5543 5541 5539 5538 5537 5537 5538 5539 5541 5542 5544 5547 5550 5554 5557 5561 5566 5570 5575 5580 5585 5589 5594 5599 5604 5608 5611 5614 5617 5619 5621 5623 5624 5624
5556 5553 5551 5548 5545 5542 5539 5537 5533 5530 5528 5526 5525 5523 5522 5522 5523 5524 5525 5528 5529 5532 5535 5539 5543 5546 5551 5555 5560 5565 5570 5575 5580 5585 5589 5593 5597 5601 5603 5606 5608 5610 5611 5612
5542 5540 5537 5534 5531 5528 5526 5523 5520 5517 5515 5513 5512 5510 5509 5508 5509 5510 5512 5514 5516 5518 5521 5525 5529 5532 5536 5541 5546 5550 5555 5560 5565 5570 5575 5580 5583 5587 5590 5592 5595 5596 5597 5598
5528 5526 5523 5521 5518 5515 5512 5509 5507 5505 5502 5501 5499 5498 5497 5496 5496 5497 5499 5501 5503 5505 5508 5511 5515 5519 5523 5528 5532 5537 5542 5547 5552 5557 5561 5566 5570 5573 5576 5579 5581 5583 5584 5585
5515 5512 5510 5508 5505 5502 5499 5497 5495 5493 5491 5489 5488 5487 5486 5485 5485 5486 5487 5489 5491 5493 5496 5499 5503 5507 5511 5515 5520 5524 5529 5534 5539 5544 5548 5553 5556 5560 5563 5566 5568 5570 5571 5572